Tracking 31027 objects as of 19-Jul-2025
HD Live streaming from Space Station
objects crossing your sky now

FENGYUN 1C DEB

Track FENGYUN 1C DEB now!
10-day predictions


NORAD ID: 36734
Int'l Code: 1999-025EBG
Perigee: 793.2 km
Apogee: 841.0 km
Inclination: 99.1 °
Period: 101.1 minutes
Semi major axis: 7188 km
RCS: 0.0055 m2 (small)
Launch date: May 10, 1999
Source: People's Republic of China (PRC)
Launch site: Taiyaun Space Center, China (TSC)

Note: This is SATELLITE DEBRIS
Your satellite tracking list
SL-14 DEB
Track 1 satellite(s)




NASA's NSSDC Master Catalog

Two Line Element Set (TLE):
1 36734U 99025EBG 25198.04144635  .00002314  00000-0  10112-2 0  9997
2 36734  99.0624 240.1504 0033258 288.2454  71.5105 14.24575649806162
Source of the keplerian elements: AFSPC